Weather History for KLAX - October, 2012

Change the Weather History Date:

Monday, October 22, 2012

  Actual Average Record
Temperature  
Mean Temperature 68 °F 65 °F  
Max Temperature 71 °F 72 °F 101 °F (1965)
Min Temperature 64 °F 58 °F 46 °F (1949)
Degree Days  
Heating Degree Days 0 1  
Month to date heating degree days 2 19  
Since 1 July heating degree days 7 28  
Cooling Degree Days 3 2  
Month to date cooling degree days 109 51  
Year to date cooling degree days 678 519  
Growing Degree Days 18 (Base 50)    
Moisture  
Dew Point 55 °F    
Average Humidity 68    
Maximum Humidity 78    
Minimum Humidity 57    
Precipitation  
Precipitation 0.00 in 0.02 in 0.51 in (1987)
Month to date precipitation 0.12 0.34  
Year to date precipitation 4.73 9.44  
Since 1 July precipitation 0.12 0.63  
Sea Level Pressure  
Sea Level Pressure 29.95 in    
Wind  
Wind Speed 9 mph (WSW)    
Max Wind Speed 18 mph    
Max Gust Speed 22 mph    
Visibility 10 miles    
Events      
T = Trace of Precipitation, MM = Missing Value Source: NWS Daily Summary

Daily Weather History Graph

Daily Weather History Graph

Search for Another Location

Airport or City:

Trip Planner

Search our weather history database for the weather conditions in past years. The results will help you decide how hot, cold, wet, or windy it might be!

Date:

Astronomy

Oct. 22, 2012 Rise Set
Actual Time 7:04 AM PDT 6:10 PM PDT
Civil Twilight 6:39 AM PDT 6:35 PM PDT
Nautical Twilight 6:10 AM PDT 7:05 PM PDT
Astronomical Twilight 5:41 AM PDT 7:34 PM PDT
Moon 2:04 PM PDT (10/22) 12:15 AM PDT (10/22)
Length of Visible Light 11h 56m
Length of Day
11h 05m
First Quarter, 57% of the Moon is Illuminated
Oct 22
First Quarter
Oct 29
Full
Nov 6
Last Quarter
Nov 13
New
Nov 20
First Quarter

Hourly Weather History & Observations

Time (PDT) Temp. Dew Point Humidity Pressure Visibility Wind Dir Wind Speed Gust Speed Precip Events Conditions
12:41 AM 64.4 °F 57.2 °F 77% 29.92 in 10.0 mi WSW 6.9 mph - N/A   Overcast
12:47 AM 64.4 °F 57.2 °F 77% 29.92 in 10.0 mi WSW 8.1 mph - N/A   Overcast
12:53 AM 64.9 °F 57.0 °F 75% 29.92 in 10.0 mi WSW 8.1 mph - N/A   Overcast
1:53 AM 64.0 °F 57.0 °F 78% 29.92 in 10.0 mi WSW 4.6 mph - N/A   Overcast
2:03 AM 64.4 °F 57.2 °F 77% 29.92 in 10.0 mi SW 3.5 mph - N/A   Overcast
2:10 AM 64.4 °F 57.2 °F 77% 29.92 in 10.0 mi SW 3.5 mph - N/A   Overcast
2:53 AM 64.0 °F 57.0 °F 78% 29.91 in 10.0 mi WSW 6.9 mph - N/A   Overcast
3:53 AM 64.0 °F 57.0 °F 78% 29.90 in 10.0 mi West 4.6 mph - N/A   Overcast
4:53 AM 64.0 °F 57.0 °F 78% 29.90 in 10.0 mi West 3.5 mph - N/A   Overcast
5:53 AM 64.0 °F 57.0 °F 78% 29.91 in 10.0 mi South 6.9 mph - N/A   Overcast
6:53 AM 64.0 °F 55.9 °F 75% 29.94 in 10.0 mi South 5.8 mph - N/A   Mostly Cloudy
7:53 AM 64.0 °F 55.0 °F 73% 29.96 in 10.0 mi South 3.5 mph - N/A   Mostly Cloudy
8:53 AM 64.0 °F 55.0 °F 73% 29.97 in 10.0 mi South 5.8 mph - N/A   Mostly Cloudy
9:53 AM 66.0 °F 55.0 °F 68% 29.99 in 10.0 mi Calm Calm - N/A   Overcast
10:53 AM 66.9 °F 55.0 °F 66% 29.99 in 10.0 mi SW 8.1 mph - N/A   Mostly Cloudy
11:53 AM 69.1 °F 53.1 °F 57% 29.99 in 10.0 mi South 9.2 mph - N/A   Mostly Cloudy
12:53 PM 70.0 °F 53.1 °F 55% 29.98 in 10.0 mi SSW 13.8 mph 21.9 mph N/A   Mostly Cloudy
1:53 PM 68.0 °F 55.0 °F 63% 29.96 in 10.0 mi SW 10.4 mph 18.4 mph N/A   Mostly Cloudy
2:53 PM 69.1 °F 55.9 °F 63% 29.95 in 10.0 mi West 18.4 mph - N/A   Mostly Cloudy
3:53 PM 66.9 °F 55.0 °F 66% 29.96 in 10.0 mi West 16.1 mph - N/A   Scattered Clouds
4:53 PM 66.0 °F 55.0 °F 68% 29.96 in 10.0 mi West 16.1 mph - N/A   Mostly Cloudy
5:53 PM 64.9 °F 54.0 °F 68% 29.96 in 10.0 mi West 13.8 mph - N/A   Mostly Cloudy
6:53 PM 64.0 °F 54.0 °F 70% 29.97 in 10.0 mi West 12.7 mph - N/A   Scattered Clouds
7:53 PM 64.0 °F 53.1 °F 67% 29.98 in 10.0 mi West 10.4 mph - N/A   Mostly Cloudy
8:51 PM 64.4 °F 53.6 °F 68% 29.98 in 10.0 mi West 10.4 mph - N/A   Overcast
8:53 PM 64.0 °F 53.1 °F 67% 29.98 in 10.0 mi West 10.4 mph - N/A   Overcast
9:13 PM 64.4 °F 53.6 °F 68% 29.98 in 10.0 mi WSW 6.9 mph - N/A   Scattered Clouds
9:53 PM 64.0 °F 53.1 °F 67% 29.98 in 10.0 mi WSW 9.2 mph - N/A   Mostly Cloudy
10:53 PM 64.0 °F 54.0 °F 70% 29.99 in 10.0 mi West 5.8 mph - N/A   Overcast
11:33 PM 64.4 °F 53.6 °F 68% 29.98 in 10.0 mi WSW 4.6 mph - N/A   Overcast
11:53 PM 64.0 °F 54.0 °F 70% 29.98 in 10.0 mi West 6.9 mph - N/A   Overcast